When you browse on this site, cookies collect data to enhance your experience and personalize the content and advertising you see.
Visit our Privacy Policy to learn more. By continuing to use the site, you agree to this use of cookies and data.
  • En España
  • Lista de países
  • Para 7 días
  • Temperatura del agua
  • El tiempo en el mapa
  • Informadores
  • user-avatar
    Iniciar sesión

    Tiempo cada hora Kaprun

    Hoy, 10 Abril, Viernes

    Tiempo Temperatura Precipitaciones Viento Presión Humedad
    00:00 +1°C° 0 mm 1 mps 599 mmHg 87%
    01:00 +1°C° 0 mm 1 mps 599 mmHg 86%
    02:00 0°C° 0 mm 1 mps 599 mmHg 85%
    03:00 0°C° 0 mm 1 mps 599 mmHg 83%
    04:00 0°C° 0 mm 1 mps 598 mmHg 82%
    05:00 +1°C° 0 mm 1 mps 599 mmHg 80%
    06:00 +2°C° 0 mm 1 mps 599 mmHg 78%
    07:00 +2°C° 0 mm 1 mps 600 mmHg 75%
    08:00 +4°C° 0 mm 1 mps 601 mmHg 73%
    09:00 +5°C° 0 mm 0 mps 601 mmHg 70%
    10:00 +7°C° 0 mm 0 mps 602 mmHg 67%
    11:00 +8°C° 0 mm 0 mps 602 mmHg 62%
    12:00 +9°C° 0 mm 0 mps 602 mmHg 57%
    13:00 +9°C° 0 mm 0 mps 603 mmHg 52%
    14:00 +10°C° 0 mm 1 mps 602 mmHg 51%
    15:00 +10°C° 0 mm 1 mps 602 mmHg 51%
    16:00 +10°C° 0 mm 1 mps 601 mmHg 51%
    17:00 +8°C° 0 mm 1 mps 600 mmHg 61%
    18:00 +5°C° 0 mm 1 mps 599 mmHg 71%
    19:00 +3°C° 0 mm 1 mps 598 mmHg 80%
    20:00 +3°C° 0 mm 1 mps 598 mmHg 82%
    21:00 +2°C° 0 mm 1 mps 599 mmHg 84%
    22:00 +2°C° 0 mm 1 mps 599 mmHg 85%
    23:00 +2°C° 0 mm 1 mps 599 mmHg 86%

    Mañana, 11 Abril, Sábado

    Tiempo Temperatura Precipitaciones Viento Presión Humedad
    00:00 +1°C° 0 mm 1 mps 599 mmHg 87%
    01:00 +1°C° 0 mm 1 mps 599 mmHg 88%
    02:00 +1°C° 0 mm 1 mps 599 mmHg 89%
    03:00 +1°C° 0 mm 1 mps 599 mmHg 89%
    04:00 +1°C° 0 mm 1 mps 598 mmHg 89%
    05:00 +2°C° 0 mm 1 mps 599 mmHg 87%
    06:00 +3°C° 0 mm 1 mps 599 mmHg 85%
    07:00 +3°C° 0 mm 1 mps 600 mmHg 83%
    08:00 +5°C° 0 mm 1 mps 601 mmHg 76%
    09:00 +7°C° 0 mm 1 mps 601 mmHg 69%
    10:00 +9°C° 0 mm 1 mps 602 mmHg 62%
    11:00 +9°C° 0 mm 1 mps 602 mmHg 58%
    12:00 +10°C° 0 mm 1 mps 602 mmHg 55%
    13:00 +10°C° 0 mm 1 mps 602 mmHg 52%
    14:00 +10°C° 0 mm 1 mps 602 mmHg 54%
    15:00 +10°C° 0 mm 1 mps 601 mmHg 56%
    16:00 +9°C° 0 mm 1 mps 601 mmHg 59%
    17:00 +7°C° 0.1 mm 1 mps 600 mmHg 69%
    18:00 +5°C° 0.1 mm 1 mps 599 mmHg 80%
    19:00 +2°C° 0.1 mm 0 mps 598 mmHg 90%
    20:00 +1°C° 0 mm 0 mps 598 mmHg 91%
    21:00 +1°C° 0 mm 0 mps 598 mmHg 92%
    22:00 +2°C° 0 mm 1 mps 598 mmHg 92%
    23:00 +2°C° 0 mm 1 mps 598 mmHg 92%

    Pasado mañana, 12 Abril, Domingo

    Tiempo Temperatura Precipitaciones Viento Presión Humedad
    00:00 +2°C° 0 mm 1 mps 598 mmHg 91%
    01:00 +2°C° 0 mm 1 mps 598 mmHg 90%
    02:00 +2°C° 0 mm 1 mps 598 mmHg 90%
    03:00 +2°C° 0 mm 1 mps 598 mmHg 90%
    04:00 +2°C° 0 mm 1 mps 598 mmHg 89%
    05:00 +2°C° 0 mm 1 mps 598 mmHg 87%
    06:00 +3°C° 0 mm 1 mps 599 mmHg 86%
    07:00 +4°C° 0 mm 1 mps 599 mmHg 84%
    08:00 +6°C° 0.1 mm 1 mps 599 mmHg 78%
    09:00 +8°C° 0.1 mm 1 mps 600 mmHg 71%
    10:00 +9°C° 0.1 mm 1 mps 600 mmHg 65%
    11:00 +10°C° 0.3 mm 1 mps 600 mmHg 63%
    12:00 +10°C° 0.3 mm 1 mps 600 mmHg 60%
    13:00 +11°C° 0.3 mm 1 mps 599 mmHg 58%
    14:00 +9°C° 0.7 mm 2 mps 599 mmHg 63%
    15:00 +8°C° 0.7 mm 2 mps 598 mmHg 68%
    16:00 +8°C° 0.7 mm 2 mps 597 mmHg 73%
    17:00 +6°C° 0.8 mm 2 mps 596 mmHg 79%
    18:00 +4°C° 0.8 mm 2 mps 595 mmHg 85%
    19:00 +2°C° 0.8 mm 2 mps 594 mmHg 91%
    20:00 +2°C° 0.3 mm 2 mps 594 mmHg 91%
    21:00 +2°C° 0.3 mm 2 mps 594 mmHg 92%
    22:00 +1°C° 0.3 mm 2 mps 594 mmHg 93%
    23:00 +1°C° 0.1 mm 2 mps 594 mmHg 93%

    13 Abril, Lunes

    Tiempo Temperatura Precipitaciones Viento Presión Humedad
    00:00 +1°C° 0.1 mm 2 mps 594 mmHg 93%
    01:00 +1°C° 0.1 mm 2 mps 593 mmHg 93%
    02:00 -1°C° 0.1 mm 2 mps 593 mmHg 92%
    03:00 -1°C° 0.1 mm 2 mps 593 mmHg 92%
    04:00 -1°C° 0.1 mm 2 mps 593 mmHg 92%
    05:00 +1°C° 0 mm 2 mps 593 mmHg 90%
    06:00 +2°C° 0 mm 1 mps 593 mmHg 88%
    07:00 +3°C° 0 mm 1 mps 593 mmHg 86%
    08:00 +4°C° 0.1 mm 1 mps 594 mmHg 80%
    09:00 +5°C° 0.1 mm 1 mps 595 mmHg 74%
    10:00 +7°C° 0.1 mm 1 mps 595 mmHg 68%
    11:00 +7°C° 0.3 mm 1 mps 595 mmHg 64%
    12:00 +8°C° 0.3 mm 1 mps 595 mmHg 61%
    13:00 +7°C° 0.3 mm 2 mps 595 mmHg 57%
    14:00 +7°C° 0.4 mm 2 mps 595 mmHg 62%
    15:00 +7°C° 0.4 mm 1 mps 594 mmHg 67%
    16:00 +6°C° 0.4 mm 1 mps 594 mmHg 72%
    17:00 +5°C° 0.3 mm 1 mps 593 mmHg 79%
    18:00 +4°C° 0.3 mm 1 mps 592 mmHg 85%
    19:00 +2°C° 0.3 mm 1 mps 592 mmHg 92%
    20:00 +2°C° 0.1 mm 1 mps 592 mmHg 92%
    21:00 +2°C° 0.1 mm 1 mps 592 mmHg 92%
    22:00 +2°C° 0.1 mm 1 mps 593 mmHg 92%
    23:00 +1°C° 0 mm 1 mps 592 mmHg 93%

    14 Abril, Martes

    Tiempo Temperatura Precipitaciones Viento Presión Humedad
    00:00 +1°C° 0 mm 1 mps 592 mmHg 93%
    01:00 0°C° 0 mm 1 mps 592 mmHg 93%
    02:00 0°C° 0 mm 1 mps 592 mmHg 93%
    03:00 0°C° 0 mm 1 mps 592 mmHg 93%
    04:00 0°C° 0 mm 1 mps 592 mmHg 94%
    05:00 +1°C° 0.1 mm 1 mps 592 mmHg 93%
    06:00 +1°C° 0.1 mm 1 mps 592 mmHg 92%
    07:00 +2°C° 0.1 mm 1 mps 593 mmHg 91%
    08:00 +3°C° 0.1 mm 1 mps 593 mmHg 88%
    09:00 +4°C° 0.1 mm 1 mps 593 mmHg 85%
    10:00 +4°C° 0.1 mm 1 mps 594 mmHg 82%
    11:00 +4°C° 0.1 mm 1 mps 594 mmHg 82%
    12:00 +5°C° 0.1 mm 1 mps 594 mmHg 82%
    13:00 +4°C° 0.1 mm 2 mps 594 mmHg 83%
    14:00 +5°C° 0.2 mm 1 mps 594 mmHg 85%
    15:00 +4°C° 0.2 mm 1 mps 593 mmHg 87%
    16:00 +4°C° 0.2 mm 1 mps 593 mmHg 89%
    17:00 +4°C° 0.2 mm 1 mps 593 mmHg 91%
    18:00 +3°C° 0.2 mm 1 mps 593 mmHg 94%
    19:00 +3°C° 0.2 mm 1 mps 593 mmHg 97%
    20:00 +1°C° 0.1 mm 2 mps 593 mmHg 96%
    21:00 +1°C° 0.1 mm 2 mps 594 mmHg 96%
    22:00 +1°C° 0.1 mm 2 mps 594 mmHg 96%
    23:00 +1°C° 0 mm 2 mps 594 mmHg 95%

    15 Abril, Miércoles

    Tiempo Temperatura Precipitaciones Viento Presión Humedad
    00:00 -1°C° 0 mm 2 mps 594 mmHg 95%
    01:00 -1°C° 0 mm 3 mps 593 mmHg 94%
    02:00 -1°C° 0 mm 3 mps 593 mmHg 94%
    03:00 -1°C° 0 mm 3 mps 593 mmHg 94%
    04:00 -2°C° 0 mm 3 mps 593 mmHg 93%
    05:00 -1°C° 0 mm 3 mps 593 mmHg 91%
    06:00 -1°C° 0 mm 3 mps 593 mmHg 89%
    07:00 0°C° 0 mm 3 mps 594 mmHg 86%
    08:00 +2°C° 0 mm 3 mps 594 mmHg 78%
    09:00 +5°C° 0 mm 2 mps 595 mmHg 69%
    10:00 +7°C° 0 mm 2 mps 596 mmHg 61%
    11:00 +8°C° 0 mm 2 mps 596 mmHg 59%
    12:00 +8°C° 0 mm 2 mps 596 mmHg 56%
    13:00 +9°C° 0 mm 2 mps 597 mmHg 54%
    14:00 +9°C° 0 mm 2 mps 596 mmHg 56%
    15:00 +9°C° 0 mm 3 mps 596 mmHg 58%
    16:00 +9°C° 0 mm 3 mps 596 mmHg 60%
    17:00 +7°C° 0 mm 3 mps 595 mmHg 69%
    18:00 +4°C° 0 mm 3 mps 594 mmHg 77%
    19:00 +2°C° 0 mm 3 mps 594 mmHg 85%
    20:00 +2°C° 0 mm 3 mps 594 mmHg 85%
    21:00 +2°C° 0 mm 3 mps 594 mmHg 85%
    22:00 0°C° 0 mm 4 mps 594 mmHg 85%
    23:00 0°C° 0 mm 4 mps 594 mmHg 85%
    Mostrar más